SALSAT
1 46495U 20068K   25232.87941033  .00006745  00000-0  28427-3 0  9991
2 46495  97.8660 214.3176 0009090 270.5671  89.4523 15.23653873269535
TUBIN
1 48900U 21059X   25232.91903958  .00049458  00000-0  46804-3 0  9991
2 48900  97.6772  48.3755 0002296 317.8573  42.2510 15.66833493231341
LEDSAT
1 49069U 21073D   25232.78237511  .00122394  00000-0  91797-3 0  9996
2 49069  97.3831 317.8615 0008314 176.1575 183.9754 15.72205493222731
CUTE
1 49263U 21088D   25232.73685293  .00020512  00000-0  36676-3 0  9991
2 49263  97.4479 311.2257 0005583 341.2189  18.8855 15.50026494215599
TeikyoSat 4
1 49396U 21102B   25232.82262755  .00001475  00000-0  99989-4 0  9993
2 49396  97.4061 268.6371 0010971 242.0185 117.9934 15.07905225207439
Z-Sat
1 49399U 21102E   25232.89178036  .00003323  00000-0  18121-3 0  9993
2 49399  97.3758 272.2573 0017149 208.0560 151.9750 15.14931336207920
KOSEN 1
1 49402U 21102H   25232.65756675  .00006803  00000-0  30772-3 0  9995
2 49402  97.3659 276.0027 0015749 180.3818 179.7409 15.21125105208245
HO-113
1 50466U 21131B   25232.91279323  .00000408  00000-0  14097-3 0  9995
2 50466  98.5095 321.9116 0002963 280.6917  79.3938 14.40885579191860
SNUGLITE 2
1 52899U 22065F   25232.90469436  .00000967  00000-0  19638-3 0  9995
2 52899  98.1783  14.2174 0006506 241.9529 118.1016 14.63359589167060
UmKA 1 (RS40S)
1 57172U 23091G   25232.89699830  .00005919  00000-0  31018-3 0  9993
2 57172  97.5531 287.9124 0015720  86.2012 274.1017 15.16064444118435
CubeBel-2 (EU11S)
1 57175U 23091K   25232.85934043  .00008718  00000-0  40127-3 0  9991
2 57175  97.5530 289.4834 0013381  92.3473 267.9294 15.20482790118533
ENSO
1 58470U 23185J   25232.88023523  .00078168  00000-0  81137-3 0  9991
2 58470  97.3676 310.7073 0006949 175.6223 184.5098 15.64370117 96307
EIRSAT-1
1 58472U 23185L   25233.10153476  .00391011  61959-4  10650-2 0  9990
2 58472  97.3587 314.7441 0008029 227.0280 133.0322 15.94081027 96591
SONATE-2
1 59112U 24043Q   25232.90089804  .00017260  00000-0  46418-3 0  9995
2 59112  97.5211   5.6725 0010225 211.0792 148.9848 15.37904748 81449
MO-122
1 60209U 24125G   25232.56992480  .00018314  00000-0  48301-3 0  9994
2 60209  97.2723  83.4686 0016424 234.6918 125.2792 15.38402508 63018
GRBBeta
1 60237U 24128C   25232.85856724  .00004342  00000-0  32441-3 0  9994
2 60237  61.9902 187.4423 0056217  72.9920 287.7320 15.03160833 61068
Curium One
1 60242U 24128H   25232.56808140  .00008174  00000-0  55208-3 0  9990
2 60242  61.9800 185.6245 0056343  69.4877 291.2250 15.06020975 61073
ROBUSTA-3A
1 60243U 24128J   25232.59386463  .00007982  00000-0  54782-3 0  9995
2 60243  61.9871 186.6104 0055438  67.0508 293.6421 15.05493865 61062
CatSat
1 60246U 24125J   25232.84471904  .00017275  00000-0  54559-3 0  9996
2 60246  97.2532  82.1029 0040698 194.1850 165.8252 15.32064726 61041
HYPERVIEW-1G (RS66S)
1 61772U 24199AP  25232.88758517  .00019639  00000-0  52263-3 0  9990
2 61772  97.3428 101.6880 0010662 296.0730  63.9417 15.38193396 88064
AO-123
1 61781U 24199AY  25232.84152429  .00006407  00000-0  22804-3 0  9993
2 61781  97.3449  99.6745 0013905 305.4598  54.5343 15.29215246 87920
ZIMSAT 2
1 61783U 24199BA  25232.84167609  .00038245  00000-0  78843-3 0  9990
2 61783  97.3393 102.9123 0009246 288.3704  71.6539 15.45757997 91293
HADES-R (SO-124)
1 62690U 25009CK  25232.74916301  .00040297  00000-0  12244-2 0  9991
2 62690  97.4062 313.4902 0003711 184.9853 175.1353 15.33942216 33192
HYDRA-T
1 62692U 25009CM  25232.19804017  .00047676  00000-0  14310-2 0  9996
2 62692  97.4080 313.0054 0003649 181.8995 178.2235 15.34290532 33114
JINJUSat 1B
1 63210U 25052A   25232.68474875  .00010734  00000-0  47195-3 0  9993
2 63210  97.4320 125.9259 0006290  78.7341 281.4602 15.22048341 24211
NUSHSAT 1
1 63211U 25052B   25232.66538860  .00012967  00000-0  56289-3 0  9991
2 63211  97.4307 125.9307 0006319  82.0204 278.1749 15.22437216 24217
TEVEL2-4
1 63213U 25052D   25232.69449167  .00011899  00000-0  52248-3 0  9991
2 63213  97.4226 125.7218 0005627  94.2677 265.9203 15.22071699 24216
TEVEL2-5
1 63214U 25052E   25232.69625058  .00011698  00000-0  51419-3 0  9993
2 63214  97.4226 125.7199 0005619  93.9098 266.2781 15.22038988 24218
TEVEL2-6
1 63215U 25052F   25232.70028213  .00011658  00000-0  51304-3 0  9995
2 63215  97.4230 125.7173 0005630  94.9464 265.2415 15.21999389 24210
TEVEL2-1
1 63217U 25052H   25232.65636113  .00012171  00000-0  53928-3 0  9990
2 63217  97.4198 125.5717 0005671 103.2139 256.9729 15.21756445 24203
TEVEL2-3
1 63218U 25052J   25232.65654142  .00011809  00000-0  52327-3 0  9992
2 63218  97.4205 125.5732 0005735 103.6453 256.5422 15.21761281 24204
TEVEL2-2
1 63219U 25052K   25232.65700612  .00012269  00000-0  54367-3 0  9994
2 63219  97.4203 125.5721 0005734 103.7270 256.4604 15.21751610 24204
TEVEL2-9
1 63237U 25052AD  25232.64912883  .00011651  00000-0  53548-3 0  9992
2 63237  97.4266 125.4105 0009849 117.2181 243.0059 15.20481471 24187
TEVEL2-7
1 63238U 25052AE  25232.65470889  .00011320  00000-0  52156-3 0  9996
2 63238  97.4265 125.4066 0009914 117.3175 242.9071 15.20402204 24189
TEVEL2-8
1 63239U 25052AF  25232.65820578  .00011481  00000-0  52940-3 0  9990
2 63239  97.4265 125.4001 0009914 117.5356 242.6887 15.20371193 24186
HYDRA-W
1 63490U 25052BL  25232.66516067  .00029302  00000-0  11136-2 0  9997
2 63490  97.4209 126.1954 0013729 114.5120 245.7551 15.26665258 24246
HADES-ICM (SO-125)
1 63492U 25052BN  25232.44269800  .00030259  00000-0  11726-2 0  9993
2 63492  97.4223 125.8937 0013876 118.5194 241.7443 15.26008082 24207
